Home   Weather   Tiraspol   Past weeks

Flag for Moldova Past Weather in Tiraspol, Moldova — Yesterday and Last 2 Weeks

46 °F


Feels Like: 44 °F
Forecast: 44 / 54 °F
Wind: 6 mph from East

Location: Chisinau International Airport

Current Time: Oct 22, 2016 at 9:00:06 PM

Latest Report: Oct 22, 2016 at 8:30 PM

Visibility: 3 mi

Pressure: 30.18 "Hg

Humidity: 93%

Dew Point: 45 °F

Location of TiraspolLocation

Past Weather in Tiraspol — Graph


Tiraspol Temperature Yesterday

Maximum temperature yesterday: 48 °F (at 1:00 PM)
Minimum temperature yesterday: 34 °F (at 4:00 AM)
Average temperature yesterday: 41 °F

High & Low Weather Summary for the Past Weeks

High59 °F (Oct 10, 1:30 PM)100% (Oct 12, 4:00 PM)30.66 "Hg (Oct 12, 4:00 PM)
Low27 °F (Oct 18, 6:30 AM)39% (Oct 10, 2:00 PM)29.62 "Hg (Oct 13, 3:30 AM)
Average43 °F80%30.20 "Hg
* Reported Oct 7 7:00 PM — Oct 22 7:30 PM, Tiraspol, Weather by CustomWeather, © 2016

Note: Actual official high and low records may vary slightly from our data, if they occured in-between our weather recording intervals... More about our weather records


Tiraspol Weather History for the Previous 24 Hours

Scroll right to see more
Time TempWeatherWind HumidityBarometerVisibility
7:30 PM
Sat, Oct 22
46 °FLight rain. Fog.7 mph93%30.18 "Hg2 mi
7:00 PM46 °FLight rain. Fog.8 mph93%30.15 "Hg3 mi
6:30 PM46 °FLight rain. Fog.7 mph93%30.15 "Hg3 mi
6:00 PM46 °FLow clouds.8 mph93%30.15 "Hg4 mi
5:30 PM46 °FLow clouds.9 mph93%30.15 "Hg4 mi
5:00 PM46 °FFog.9 mph93%30.15 "Hg3 mi
4:30 PM46 °FFog.8 mph93%30.15 "Hg3 mi
4:00 PM46 °FFog.6 mph93%30.15 "Hg3 mi
3:30 PM46 °FFog.7 mph93%30.15 "Hg3 mi
3:00 PM46 °FFog.8 mph93%30.15 "Hg3 mi
2:30 PM46 °FFog.7 mph93%30.15 "Hg3 mi
2:00 PM46 °FFog.7 mph93%30.15 "Hg2 mi
1:30 PM46 °FFog.8 mph93%30.15 "Hg2 mi
1:00 PM46 °FFog.7 mph93%30.15 "Hg2 mi
12:30 PM45 °FDrizzle. Fog.9 mph100%30.15 "Hg2 mi
12:00 PM45 °FFog.9 mph100%30.15 "Hg2 mi
11:30 AM45 °FDrizzle. Fog.10 mph93%30.15 "Hg2 mi
11:00 AM45 °FDrizzle. Fog.10 mph93%30.12 "Hg1 mi
10:30 AM45 °FDrizzle. Fog.10 mph93%30.15 "Hg1 mi
10:00 AM45 °FDrizzle. Fog.7 mph93%30.15 "Hg1 mi
9:30 AM45 °FFog.7 mph93%30.15 "Hg2 mi
9:00 AM45 °FFog.7 mph93%30.15 "Hg2 mi
8:30 AM45 °FFog.5 mph93%30.15 "Hg2 mi
8:00 AM43 °FFog.6 mph100%30.15 "Hg2 mi
7:30 AM43 °FFog.8 mph100%30.15 "Hg2 mi
7:00 AM43 °FFog.14 mph100%30.15 "Hg2 mi
6:30 AM43 °FFog.13 mph100%30.15 "Hg2 mi
6:00 AM43 °FFog.12 mph93%30.15 "Hg2 mi
5:30 AM43 °FFog.10 mph93%30.15 "Hg2 mi
5:00 AM43 °FFog.9 mph100%30.18 "Hg2 mi
4:30 AM43 °FDrizzle. Fog.9 mph100%30.18 "Hg1 mi
4:00 AM43 °FDrizzle. Fog.9 mph100%30.18 "Hg1 mi
3:00 AM43 °FDrizzle. Fog.10 mph93%30.18 "Hg1 mi
2:30 AM43 °FDrizzle. Fog.9 mph93%30.21 "Hg1 mi
2:00 AM43 °FDrizzle. Fog.10 mph93%30.21 "Hg2 mi
1:30 AM43 °FDrizzle. Fog.10 mph93%30.21 "Hg2 mi
1:00 AM43 °FDrizzle. Fog.9 mph93%30.21 "Hg2 mi
12:30 AM43 °FDrizzle. Low clouds.8 mph93%30.21 "Hg5 mi
12:00 AM43 °FLow clouds.8 mph93%30.24 "HgN/A
11:30 PM
Fri, Oct 21
43 °FOvercast.9 mph87%30.24 "HgN/A
11:00 PM43 °FOvercast.7 mph87%30.24 "Hg6 mi
10:30 PM43 °FOvercast.8 mph87%30.24 "Hg5 mi
10:00 PM43 °FOvercast.7 mph87%30.24 "Hg5 mi
9:30 PM43 °FOvercast.8 mph87%30.24 "Hg4 mi
9:00 PM43 °FOvercast.8 mph87%30.24 "Hg5 mi
Weather by CustomWeather, © 2016

See weather overviewHow to use our weather pages